Weather History for KIWI - March, 2013

Change the Weather History Date:

Sunday, March 17, 2013

  Actual Average Record
Temperature  
Mean Temperature 22 °F -  
Max Temperature 34 °F 36 °F 55 °F (2012)
Min Temperature 15 °F 20 °F 3 °F (1997)
Degree Days  
Heating Degree Days 42    
Moisture  
Dew Point 2 °F    
Average Humidity 42    
Maximum Humidity 80    
Minimum Humidity 24    
Precipitation  
Precipitation 0.00 in - - ()
Sea Level Pressure  
Sea Level Pressure 30.05 in    
Wind  
Wind Speed 3 mph (WNW)    
Max Wind Speed 14 mph    
Max Gust Speed 29 mph    
Visibility 10 miles    
Events      
Averages and records for this station are not official NWS values.
T = Trace of Precipitation, MM = Missing Value Source: NWS Daily Summary

Daily Weather History Graph

Daily Weather History Graph

Search for Another Location

Airport or City:

Trip Planner

Search our weather history database for the weather conditions in past years. The results will help you decide how hot, cold, wet, or windy it might be!

Date:

Astronomy

Mar. 17, 2013 Rise Set
Actual Time 6:47 AM EDT 6:47 PM EDT
Civil Twilight 6:18 AM EDT 7:16 PM EDT
Nautical Twilight 5:44 AM EDT 7:50 PM EDT
Astronomical Twilight 5:10 AM EDT 8:24 PM EDT
Moon 9:46 AM EDT (3/17) 12:03 AM EDT (3/17)
Length of Visible Light 12h 58m
Length of Day
12h 00m
Waxing Crescent, 31% of the Moon is Illuminated
Mar 17
Waxing Crescent
Mar 19
First Quarter
Mar 27
Full
Apr 3
Last Quarter
Apr 10
New

Hourly Weather History & Observations

Time (EDT) Temp. Windchill Dew Point Humidity Pressure Visibility Wind Dir Wind Speed Gust Speed Precip Events Conditions
12:53 AM 25.0 °F - 7.0 °F 46% 29.92 in 10.0 mi Calm Calm - N/A   Partly Cloudy
1:53 AM 21.9 °F - 9.0 °F 58% 29.92 in 10.0 mi Calm Calm - N/A   Clear
2:53 AM 21.0 °F - 9.0 °F 60% 29.92 in 10.0 mi Calm Calm - N/A   Clear
3:53 AM 19.0 °F - 10.0 °F 68% 29.92 in 10.0 mi Calm Calm - N/A   Clear
4:53 AM 17.1 °F - 10.0 °F 74% 29.94 in 10.0 mi Calm Calm - N/A   Clear
5:53 AM 16.0 °F - 10.0 °F 77% 29.94 in 10.0 mi Calm Calm - N/A   Clear
6:53 AM 15.1 °F - 10.0 °F 80% 29.95 in 10.0 mi Calm Calm - N/A   Clear
7:53 AM 21.0 °F - 10.0 °F 63% 29.96 in 10.0 mi Calm Calm - N/A   Clear
8:53 AM 25.0 °F 17.1 °F 7.0 °F 46% 29.99 in 10.0 mi Variable 6.9 mph - N/A   Clear
9:53 AM 27.0 °F 21.6 °F 8.1 °F 45% 29.99 in 10.0 mi Variable 4.6 mph - N/A   Mostly Cloudy
10:53 AM 30.0 °F 23.2 °F 3.0 °F 32% 30.00 in 10.0 mi Variable 6.9 mph - N/A   Scattered Clouds
11:53 AM 30.9 °F 22.2 °F 3.0 °F 31% 30.01 in 10.0 mi West 10.4 mph 18.4 mph N/A   Partly Cloudy
12:53 PM 30.9 °F 22.8 °F -0.9 °F 26% 30.01 in 10.0 mi WNW 9.2 mph 24.2 mph N/A   Scattered Clouds
1:53 PM 30.9 °F 20.7 °F -2.0 °F 24% 30.01 in 10.0 mi West 13.8 mph 28.8 mph N/A   Mostly Cloudy
2:53 PM 30.9 °F 22.8 °F -0.0 °F 27% 30.03 in 10.0 mi NNW 9.2 mph 19.6 mph N/A   Scattered Clouds
3:53 PM 30.9 °F 24.3 °F -2.0 °F 24% 30.04 in 10.0 mi Variable 6.9 mph - N/A   Clear
4:53 PM 28.9 °F 19.8 °F -0.9 °F 28% 30.08 in 10.0 mi NW 10.4 mph 18.4 mph N/A   Clear
5:53 PM 27.0 °F 18.7 °F -2.9 °F 27% 30.11 in 10.0 mi NW 8.1 mph 23.0 mph N/A   Partly Cloudy
6:53 PM 26.1 °F 19.4 °F -5.1 °F 26% 30.15 in 10.0 mi Variable 5.8 mph - N/A   Clear
7:53 PM 24.1 °F 13.7 °F -5.1 °F 28% 30.19 in 10.0 mi NW 10.4 mph 17.3 mph N/A   Clear
8:53 PM 23.0 °F 14.7 °F -5.1 °F 29% 30.24 in 10.0 mi Variable 6.9 mph - N/A   Clear
9:53 PM 21.0 °F - -5.1 °F 32% 30.28 in 10.0 mi Calm Calm - N/A   Clear
10:53 PM 19.9 °F 14.9 °F -5.1 °F 33% 30.30 in 10.0 mi Variable 3.5 mph - N/A   Clear
11:53 PM 19.0 °F - -5.1 °F 34% 30.32 in 10.0 mi Calm Calm - N/A   Clear